Regional Weather Roundup
Issued by NWS

Home | Current Version | Previous Version | Graphics & Text | Print | Product List | Glossary On
Versions: 1 2 3 4 5 6 7 8 9 10 11 12 13 14 15 16 17 18 19 20 21 22 23 24 25 26 27 28 29 30 31 32 33 34 35 36 37 38 39 40 41 42 43 44 45 46 47 48 49 50
000
ASUS43 KMKX 020400
RWRWI

WISCONSIN REGIONAL WEATHER ROUNDUP
NATIONAL WEATHER SERVICE MILWAUKEE/SULLIVAN WI
1100 PM CDT WED OCT 01 2014

NOTE: "FAIR" INDICATES FEW OR NO CLOUDS BELOW 12,000 FEET WITH NO
SIGNIFICANT WEATHER AND/OR OBSTRUCTIONS TO VISIBILITY.

WIZ001-002-006>008-014>016-023>028-020500-
NORTHWEST WISCONSIN

CITY           SKY/WX    TMP DP  RH WIND       PRES   REMARKS
SUPERIOR ARPT  CLOUDY    52  52  99 CALM      29.83S
ASHLAND          N/A     54  53  97 CALM      29.84S
HAYWARD        CLOUDY    55  54  96 S6        29.86S
SIREN          CLOUDY    54  53  98 CALM      29.84S FOG
CUMBERLAND     FOG       52  52 100 S3        29.86R VSB 1
RICE LAKE      CLOUDY    55  53  96 CALM      29.87R FOG
CHETEK         CLOUDY    55  55 100 CALM      29.86S FOG
LADYSMITH      CLOUDY    55  54  95 CALM      29.88S FOG
EAU CLAIRE     FOG       53  52  96 NE3       29.85R VSB 1/4
MENOMONIE      CLOUDY    56  55  97 CALM      29.85R FOG
NEW RICHMOND   CLOUDY    55  55 100 CALM      29.85R FOG
OSCEOLA        CLOUDY    56  56 100 CALM      29.87R FOG
$$

WIZ003>005-009-010-017-018-020500-
NORTH CENTRAL WISCONSIN

CITY           SKY/WX    TMP DP  RH WIND       PRES   REMARKS
MANITOWISH WTR CLOUDY    54  54 100 S6        29.88R FOG
ARBOR VITAE    CLOUDY    57  55  94 S7        29.88S
WOODRUFF       CLOUDY    57  55  94 S7        29.88S
RHINELANDER    CLOUDY    54  51  90 S8        29.90R
EAGLE RIVER    CLOUDY    54  53  97 S5        29.88S FOG
LAND O LAKES   CLOUDY    54  53  95 S6        29.89S FOG
PHILLIPS       CLOUDY    55  54  97 S6        29.87S
TOMAHAWK       CLOUDY    55  52  90 S5        29.89S
MEDFORD        CLOUDY    56  53  91 SE7       29.87S
MERRILL        CLOUDY    56  54  93 SE3       29.89R
$$

WIZ029-030-035-036-043>047-020500-
CENTRAL WISCONSIN

CITY           SKY/WX    TMP DP  RH WIND       PRES   REMARKS
WAUSAU         CLOUDY    56  52  86 SE6       29.88S
MOSINEE        CLOUDY    54  54 100 SE5       29.89F
MARSHFIELD     CLOUDY    58  54  86 SE6       29.87S
STEVENS POINT  CLOUDY    54  51  90 SE3       29.89F
WAUPACA        CLOUDY    58  55  89 E5        29.90F
WAUTOMA        NOT AVBL
WISC RAPIDS    RAIN      57  55  93 SE7       29.89S FOG
CAMP DOUGLAS   CLOUDY    61  61 100 SE6       29.86S
$$

WIZ011>013-019>022-031-037>040-048>050-020500-
NORTHEAST WISCONSIN

CITY           SKY/WX    TMP DP  RH WIND       PRES   REMARKS
ANTIGO         CLOUDY    53  51  94 SE10      29.91S
SHAWANO        CLOUDY    56  53  90 CALM      29.92S
OCONTO         CLOUDY    54  54 100 SE3       29.92F
STURGEON BAY   NOT AVBL
GREEN BAY      HVY RAIN  56  54  93 SE10      29.91F FOG
MANITOWOC      NOT AVBL
APPLETON       CLOUDY    57  54  88 SE12      29.91F
CLINTONVILLE   CLOUDY    54  52  94 CALM      29.91S
OSHKOSH        CLOUDY    57  55  93 SE5       29.89F
$$

WIZ032>034-041-042-053>061-020500-
SOUTHWEST WISCONSIN

CITY           SKY/WX    TMP DP  RH WIND       PRES   REMARKS
LA CROSSE      CLOUDY    61  57  87 CALM      29.83F
SPARTA         CLOUDY    61  57  88 CALM      29.85F
VIROQUA        CLOUDY    63  57  80 SE5       29.86S
BOSCOBEL       CLOUDY    65  59  81 NE3       29.84F
PRAIRIE DU CHI CLOUDY    64  58  80 CALM      29.83S
PLATTEVILLE    CLOUDY    66  59  80 SE5       29.87S
$$

WIZ056-057-062-063-064-067-068-020500-
SOUTH CENTRAL WISCONSIN

CITY           SKY/WX    TMP DP  RH WIND       PRES   REMARKS
REEDSBURG      CLOUDY    62  55  79 CALM      29.86S
BARABOO/DELLS  MOCLDY    62  52  71 CALM      29.87S
LONE ROCK      NOT AVBL
MINERAL POINT  LGT RAIN  64  55  72 SE8       29.86F
MADISON        CLOUDY    63  53  70 S7        29.88S
MIDDLETON      CLOUDY    63  54  72 SE5       29.88S
WATERTOWN      CLOUDY    60  55  81 SE6       29.88F
MONROE         CLOUDY    63  55  77 SE7       29.88S
JANESVILLE     CLOUDY    64  54  68 SE6       29.88S
$$

WIZ051-052-058>065-066-070>072-020500-
SOUTHEAST WISCONSIN

CITY           SKY/WX    TMP DP  RH WIND       PRES   REMARKS
MILWAUKEE      CLOUDY    64  53  67 SE14      29.91F
WAUKESHA       CLOUDY    59  52  77 SE7       29.92S
MILWAUKEE/TIMM CLOUDY    63  52  67 SE7       29.91F
RACINE         CLOUDY    64  54  69 SE14      29.93F
BURLINGTON     MOCLDY    60  53  76 SE5       29.91S
KENOSHA        NOT AVBL
FOND DU LAC    CLOUDY    58  53  84 SE6       29.89F
SHEBOYGAN      CLOUDY    59  54  83 SE7       29.91F
WEST BEND      CLOUDY    59  54  82 SE6       29.91S
JUNEAU         CLOUDY    59  53  80 SE7       29.90F
$$

LSZ147-162-020500-
LAKE SUPERIOR

STATION/POSITION TIME  TEMP    WIND        PRES    WAVE
                       AIR SEA DIR/SP/G            HT/PER
                 (UTC) (F)     (DEG/KT/KT) (MB)    (FT/S)
W MID LAKE BUOY  0250   50 50  120/  6/  6 1010.5S   0
DEVILS ISLAND    0300   54     180/  5/  7 1010.5R
SAXON HARBOR     0300   53        CALM     1010.5R
$$

LMZ867-665-643>646-020500-
LAKE MICHIGAN

STATION/POSITION TIME  TEMP    WIND        PRES    WAVE
                       AIR SEA DIR/SP/G            HT/PER
                 (UTC) (F)     (DEG/KT/KT) (MB)    (FT/S)
CHAMBERS ISLAND  0300   56     150/  4/  9 1014.2S
S GREEN BAY BUOY 0300   58                 1014.8R
N MID LAKE BUOY  0250   57 58  180/ 10/ 12 1014.8R   1/ 4
NORTHPORT PIER   0300   56     150/  8/ 12 1014.2F
KEWAUNEE LAKESHO 0300          160/  3/  4 1013.1
SHEBOYGAN LAKESH 0300   58 57  130/ 13/ 14 1013.5F
PORT WASHINGTON  0340   60     180/  3/  5 1013.9S
ATWATER BUOY     0300   60     140/  8/ 10 1014.3R
MILWAUKEE LAKESH 0300   60     180/  4/  6   N/A
S MID LAKE BUOY  0250   63 62  130/ 14/ 17 1013.8F   2/ 3
KENOSHA   LAKESH 0300   63     140/ 12/ 13 1012.9S
$$

TC  - TEMPERATURE IN CELSIUS
VSB - VISIBILITY IN STATUTE MILES
WCI - WIND CHILL INDEX
HX  - HEAT INDEX



USA.gov is the U.S. government's official web portal to all federal, state and local government web resources and services.